Time,TemperatureF,DewpointF,PressureIn,WindDirection,WindDirectionDegrees,WindSpeedMPH,WindSpeedGustMPH,Humidity,HourlyPrecipIn,Conditions,Clouds,dailyrainin,SoftwareType,DateUTC
2013-03-03 00:00:00,20.0,5.0,-100.00,SSW,200,17.0,26.0,51,-99.99,,,-99.99,,2013-03-03 07:00:00,
2013-03-03 00:42:00,20.0,5.0,-100.00,SSW,200,17.0,26.0,51,-99.99,,,-99.99,,2013-03-03 07:42:00,
2013-03-03 00:52:00,20.0,5.0,-100.00,SSW,200,17.0,26.0,51,-99.99,,,-99.99,,2013-03-03 07:52:00,
2013-03-03 01:00:00,20.0,1.0,-100.00,SSW,205,19.0,29.0,43,-99.99,,,-99.99,,2013-03-03 08:00:00,
2013-03-03 01:42:00,20.0,1.0,-100.00,SSW,205,19.0,29.0,43,-99.99,,,-99.99,,2013-03-03 08:42:00,
2013-03-03 01:54:00,20.0,1.0,-100.00,SSW,205,19.0,29.0,43,-99.99,,,-99.99,,2013-03-03 08:54:00,
2013-03-03 02:00:00,21.0,-1.0,-100.00,SW,217,16.0,31.0,39,-99.99,,,-99.99,,2013-03-03 09:00:00,
2013-03-03 02:42:00,21.0,-1.0,-100.00,SW,217,16.0,31.0,39,-99.99,,,-99.99,,2013-03-03 09:42:00,
2013-03-03 02:52:00,21.0,-1.0,-100.00,SW,217,16.0,31.0,39,-99.99,,,-99.99,,2013-03-03 09:52:00,
2013-03-03 03:00:00,21.0,-3.0,-100.00,SW,224,14.0,27.0,33,-99.99,,,-99.99,,2013-03-03 10:00:00,
2013-03-03 03:42:00,21.0,-3.0,-100.00,SW,224,14.0,27.0,33,-99.99,,,-99.99,,2013-03-03 10:42:00,
2013-03-03 03:52:00,21.0,-3.0,-100.00,SW,224,14.0,27.0,33,-99.99,,,-99.99,,2013-03-03 10:52:00,
2013-03-03 04:00:00,20.0,0.0,-100.00,SW,224,14.0,25.0,41,-99.99,,,-99.99,,2013-03-03 11:00:00,
2013-03-03 04:42:00,20.0,0.0,-100.00,SW,224,14.0,25.0,41,-99.99,,,-99.99,,2013-03-03 11:42:00,
2013-03-03 04:52:00,20.0,0.0,-100.00,SW,224,14.0,25.0,41,-99.99,,,-99.99,,2013-03-03 11:52:00,
2013-03-03 05:00:00,20.0,3.0,-100.00,SW,231,13.0,25.0,46,-99.99,,,-99.99,,2013-03-03 12:00:00,
2013-03-03 05:43:00,20.0,3.0,-100.00,SW,231,13.0,25.0,46,-99.99,,,-99.99,,2013-03-03 12:43:00,
2013-03-03 05:53:00,20.0,3.0,-100.00,SW,231,13.0,25.0,46,-99.99,,,-99.99,,2013-03-03 12:53:00,
2013-03-03 06:00:00,19.0,6.0,-100.00,SSW,198,17.0,27.0,55,-99.99,,,-99.99,,2013-03-03 13:00:00,
2013-03-03 06:42:00,19.0,6.0,-100.00,SSW,198,17.0,27.0,55,-99.99,,,-99.99,,2013-03-03 13:42:00,
2013-03-03 06:52:00,19.0,6.0,-100.00,SSW,198,17.0,27.0,55,-99.99,,,-99.99,,2013-03-03 13:52:00,
2013-03-03 07:00:00,19.0,6.0,-100.00,SSW,199,19.0,32.0,56,-99.99,,,-99.99,,2013-03-03 14:00:00,
2013-03-03 07:42:00,19.0,6.0,-100.00,SSW,199,19.0,32.0,56,-99.99,,,-99.99,,2013-03-03 14:42:00,
2013-03-03 07:52:00,19.0,6.0,-100.00,SSW,199,19.0,32.0,56,-99.99,,,-99.99,,2013-03-03 14:52:00,
2013-03-03 08:00:00,18.0,8.0,-100.00,SSW,197,19.0,34.0,61,-99.99,,,-99.99,,2013-03-03 15:00:00,
2013-03-03 08:42:00,18.0,8.0,-100.00,SSW,197,19.0,34.0,61,-99.99,,,-99.99,,2013-03-03 15:42:00,
2013-03-03 08:52:00,18.0,8.0,-100.00,SSW,197,19.0,34.0,61,-99.99,,,-99.99,,2013-03-03 15:52:00,
2013-03-03 09:00:00,20.0,8.0,-100.00,SSW,198,21.0,37.0,59,-99.99,,,-99.99,,2013-03-03 16:00:00,
2013-03-03 09:42:00,20.0,8.0,-100.00,SSW,198,21.0,37.0,59,-99.99,,,-99.99,,2013-03-03 16:42:00,
2013-03-03 09:52:00,20.0,8.0,-100.00,SSW,198,21.0,37.0,59,-99.99,,,-99.99,,2013-03-03 16:52:00,
2013-03-03 10:00:00,21.0,7.0,-100.00,SSW,209,21.0,46.0,53,-99.99,,,-99.99,,2013-03-03 17:00:00,
2013-03-03 10:42:00,21.0,7.0,-100.00,SSW,209,21.0,46.0,53,-99.99,,,-99.99,,2013-03-03 17:42:00,
2013-03-03 10:52:00,21.0,7.0,-100.00,SSW,209,21.0,46.0,53,-99.99,,,-99.99,,2013-03-03 17:52:00,
2013-03-03 11:00:00,23.0,8.0,-100.00,SSW,211,18.0,34.0,52,-99.99,,,-99.99,,2013-03-03 18:00:00,
2013-03-03 11:42:00,23.0,8.0,-100.00,SSW,211,18.0,34.0,52,-99.99,,,-99.99,,2013-03-03 18:42:00,
2013-03-03 11:52:00,23.0,8.0,-100.00,SSW,211,18.0,34.0,52,-99.99,,,-99.99,,2013-03-03 18:52:00,
2013-03-03 12:00:00,22.0,7.0,-100.00,SW,216,16.0,42.0,52,-99.99,,,-99.99,,2013-03-03 19:00:00,
2013-03-03 12:42:00,22.0,7.0,-100.00,SW,216,16.0,42.0,52,-99.99,,,-99.99,,2013-03-03 19:42:00,
2013-03-03 12:52:00,22.0,7.0,-100.00,SW,216,16.0,42.0,52,-99.99,,,-99.99,,2013-03-03 19:52:00,
2013-03-03 13:00:00,20.0,8.0,-100.00,SW,218,11.0,30.0,61,-99.99,,,-99.99,,2013-03-03 20:00:00,
2013-03-03 13:42:00,20.0,8.0,-100.00,SW,218,11.0,30.0,61,-99.99,,,-99.99,,2013-03-03 20:42:00,
2013-03-03 13:52:00,20.0,8.0,-100.00,SW,218,11.0,30.0,61,-99.99,,,-99.99,,2013-03-03 20:52:00,
2013-03-03 14:00:00,19.0,8.0,-100.00,SSW,204,19.0,39.0,61,-99.99,,,-99.99,,2013-03-03 21:00:00,
2013-03-03 14:42:00,19.0,8.0,-100.00,SSW,204,19.0,39.0,61,-99.99,,,-99.99,,2013-03-03 21:42:00,
2013-03-03 14:52:00,19.0,8.0,-100.00,SSW,204,19.0,39.0,61,-99.99,,,-99.99,,2013-03-03 21:52:00,
2013-03-03 15:00:00,18.0,8.0,-100.00,SSW,194,20.0,29.0,63,-99.99,,,-99.99,,2013-03-03 22:00:00,
2013-03-03 15:42:00,18.0,8.0,-100.00,SSW,194,20.0,29.0,63,-99.99,,,-99.99,,2013-03-03 22:42:00,
2013-03-03 15:52:00,18.0,8.0,-100.00,SSW,194,20.0,29.0,63,-99.99,,,-99.99,,2013-03-03 22:52:00,
2013-03-03 16:00:00,18.0,10.0,-100.00,SSW,211,14.0,32.0,67,-99.99,,,-99.99,,2013-03-03 23:00:00,
2013-03-03 16:42:00,18.0,10.0,-100.00,SSW,211,14.0,32.0,67,-99.99,,,-99.99,,2013-03-03 23:42:00,
2013-03-03 16:52:00,18.0,10.0,-100.00,SSW,211,14.0,32.0,67,-99.99,,,-99.99,,2013-03-03 23:52:00,
2013-03-03 17:00:00,18.0,12.0,-100.00,SSW,209,13.0,24.0,77,-99.99,,,-99.99,,2013-03-04 00:00:00,
2013-03-03 17:42:00,18.0,12.0,-100.00,SSW,209,13.0,24.0,77,-99.99,,,-99.99,,2013-03-04 00:42:00,
2013-03-03 17:52:00,18.0,12.0,-100.00,SSW,209,13.0,24.0,77,-99.99,,,-99.99,,2013-03-04 00:52:00,
2013-03-03 18:00:00,16.0,14.0,-100.00,SW,231,10.0,23.0,93,-99.99,,,-99.99,,2013-03-04 01:00:00,
2013-03-03 18:42:00,16.0,14.0,-100.00,SW,231,10.0,23.0,93,-99.99,,,-99.99,,2013-03-04 01:42:00,
2013-03-03 18:52:00,16.0,14.0,-100.00,SW,231,10.0,23.0,93,-99.99,,,-99.99,,2013-03-04 01:52:00,
2013-03-03 19:00:00,15.0,14.0,-100.00,SSW,211,14.0,33.0,94,-99.99,,,-99.99,,2013-03-04 02:00:00,
2013-03-03 19:42:00,15.0,14.0,-100.00,SSW,211,14.0,33.0,94,-99.99,,,-99.99,,2013-03-04 02:42:00,
2013-03-03 19:52:00,15.0,14.0,-100.00,SSW,211,14.0,33.0,94,-99.99,,,-99.99,,2013-03-04 02:52:00,
2013-03-03 20:00:00,17.0,15.0,-100.00,SSW,206,19.0,35.0,94,-99.99,,,-99.99,,2013-03-04 03:00:00,
2013-03-03 20:42:00,17.0,15.0,-100.00,SSW,206,19.0,35.0,94,-99.99,,,-99.99,,2013-03-04 03:42:00,
2013-03-03 20:52:00,17.0,15.0,-100.00,SSW,206,19.0,35.0,94,-99.99,,,-99.99,,2013-03-04 03:52:00,
2013-03-03 21:00:00,17.0,16.0,-100.00,SSW,209,20.0,37.0,94,-99.99,,,-99.99,,2013-03-04 04:00:00,
2013-03-03 21:42:00,17.0,16.0,-100.00,SSW,209,20.0,37.0,94,-99.99,,,-99.99,,2013-03-04 04:42:00,
2013-03-03 21:52:00,17.0,16.0,-100.00,SSW,209,20.0,37.0,94,-99.99,,,-99.99,,2013-03-04 04:52:00,
2013-03-03 22:00:00,17.0,16.0,-100.00,SSW,199,22.0,39.0,94,-99.99,,,-99.99,,2013-03-04 05:00:00,
2013-03-03 22:42:00,17.0,16.0,-100.00,SSW,199,22.0,39.0,94,-99.99,,,-99.99,,2013-03-04 05:42:00,
2013-03-03 22:52:00,17.0,16.0,-100.00,SSW,199,22.0,39.0,94,-99.99,,,-99.99,,2013-03-04 05:52:00,
2013-03-03 23:00:00,16.0,15.0,-100.00,SSW,193,25.0,38.0,94,-99.99,,,-99.99,,2013-03-04 06:00:00,
2013-03-03 23:42:00,16.0,15.0,-100.00,SSW,193,25.0,38.0,94,-99.99,,,-99.99,,2013-03-04 06:42:00,
2013-03-03 23:52:00,16.0,15.0,-100.00,SSW,193,25.0,38.0,94,-99.99,,,-99.99,,2013-03-04 06:52:00,